Location: Spring Creek
(38.2870°N, 100.2160°W)
Time: 22:41:53
(UTC+00:00)

Cosmos 1025 Rocket - Pass Details

Date: 08 May 2021
Orbit: 593 x 618 km, 82.5° (Epoch: 20 June)

Event Time Altitude Azimuth Distance (km) Brightness Sun altitude
Exits shadow 09:25:43 56° 170° (S) 721 3.1 -21.9°
Maximum altitude 09:26:35 80° 95° (E) 620 3.0 -21.8°
Drops below altitude 10° 09:30:57 10° 10° (N) 1,970 6.4 -21.2°
Sets 09:33:11 0° 9° (N) 2,883 7.4 -20.9°
